Time,TemperatureF,DewpointF,PressureIn,WindDirection,WindDirectionDegrees,WindSpeedMPH,WindSpeedGustMPH,Humidity,HourlyPrecipIn,Conditions,Clouds,dailyrainin,SoftwareType,DateUTC
2013-10-24 00:13:00,36.0,30.0,30.05,West,265,2.0,7.0,79,0.00,,,0.01,,2013-10-24 05:13:00,
2013-10-24 00:22:00,36.0,30.0,30.05,West,262,3.0,8.0,80,0.00,,,0.01,,2013-10-24 05:22:00,
2013-10-24 00:43:00,36.0,31.0,30.05,WNW,296,4.0,7.0,81,0.00,,,0.01,,2013-10-24 05:43:00,
2013-10-24 00:53:00,36.0,31.0,30.05,West,271,2.0,7.0,82,0.00,,,0.01,,2013-10-24 05:53:00,
2013-10-24 01:12:00,36.0,31.0,30.05,West,267,3.0,7.0,83,0.00,,,0.01,,2013-10-24 06:12:00,
2013-10-24 01:21:00,36.0,31.0,30.06,WSW,246,3.0,8.0,83,0.00,,,0.01,,2013-10-24 06:21:00,
2013-10-24 01:42:00,36.0,32.0,30.05,West,273,2.0,9.0,84,0.00,,,0.01,,2013-10-24 06:42:00,
2013-10-24 01:52:00,36.0,32.0,30.06,WNW,290,1.0,7.0,85,0.00,,,0.01,,2013-10-24 06:52:00,
2013-10-24 02:12:00,36.0,32.0,30.06,WNW,288,2.0,7.0,86,0.00,,,0.01,,2013-10-24 07:12:00,
2013-10-24 02:21:00,36.0,32.0,30.06,West,279,1.0,6.0,86,0.00,,,0.01,,2013-10-24 07:21:00,
2013-10-24 02:42:00,36.0,33.0,30.06,WSW,252,1.0,7.0,87,0.00,,,0.01,,2013-10-24 07:42:00,
2013-10-24 02:52:00,35.0,32.0,30.06,West,263,3.0,5.0,87,0.00,,,0.01,,2013-10-24 07:52:00,
2013-10-24 03:11:00,35.0,32.0,30.06,WSW,258,2.0,5.0,87,0.00,,,0.01,,2013-10-24 08:11:00,
2013-10-24 03:22:00,35.0,31.0,30.06,WSW,253,1.0,7.0,86,0.00,,,0.01,,2013-10-24 08:22:00,
2013-10-24 03:42:00,35.0,31.0,30.06,NNW,336,2.0,7.0,84,0.00,,,0.01,,2013-10-24 08:42:00,
2013-10-24 03:53:00,35.0,31.0,30.07,West,262,3.0,6.0,84,0.00,,,0.01,,2013-10-24 08:53:00,
2013-10-24 04:12:00,35.0,30.0,30.07,West,263,1.0,5.0,83,0.00,,,0.01,,2013-10-24 09:12:00,
2013-10-24 04:22:00,35.0,30.0,30.07,WSW,256,0.0,4.0,82,0.00,,,0.01,,2013-10-24 09:22:00,
2013-10-24 04:43:00,35.0,30.0,30.07,West,270,1.0,5.0,81,0.00,,,0.01,,2013-10-24 09:43:00,
2013-10-24 04:53:00,35.0,29.0,30.07,NW,319,0.0,4.0,80,0.00,,,0.01,,2013-10-24 09:53:00,
2013-10-24 05:12:00,35.0,29.0,30.08,NW,319,0.0,4.0,80,0.00,,,0.01,,2013-10-24 10:12:00,
2013-10-24 05:23:00,35.0,30.0,30.09,West,280,1.0,3.0,81,0.00,,,0.01,,2013-10-24 10:23:00,
2013-10-24 05:43:00,34.0,29.0,30.09,WSW,257,1.0,3.0,81,0.00,,,0.01,,2013-10-24 10:43:00,
2013-10-24 05:52:00,34.0,29.0,30.09,NNE,23,1.0,3.0,81,0.00,,,0.01,,2013-10-24 10:52:00,
2013-10-24 06:12:00,34.0,29.0,30.10,NNW,338,0.0,5.0,82,0.00,,,0.01,,2013-10-24 11:12:00,
2013-10-24 06:22:00,34.0,29.0,30.10,NW,308,1.0,4.0,82,0.00,,,0.01,,2013-10-24 11:22:00,
2013-10-24 06:42:00,34.0,29.0,30.10,NW,308,0.0,1.0,83,0.00,,,0.01,,2013-10-24 11:42:00,
2013-10-24 06:52:00,34.0,29.0,30.11,NNW,346,0.0,2.0,83,0.00,,,0.01,,2013-10-24 11:52:00,
2013-10-24 07:12:00,34.0,29.0,30.11,North,355,0.0,5.0,83,0.00,,,0.01,,2013-10-24 12:12:00,
2013-10-24 07:22:00,34.0,29.0,30.11,NNW,338,2.0,8.0,83,0.00,,,0.01,,2013-10-24 12:22:00,
2013-10-24 07:42:00,34.0,29.0,30.12,NW,306,0.0,8.0,82,0.00,,,0.01,,2013-10-24 12:42:00,
2013-10-24 11:23:00,39.0,25.0,30.20,West,278,2.0,9.0,57,0.00,,,0.00,,2013-10-24 16:23:00,
2013-10-24 11:42:00,40.0,25.0,30.20,West,277,4.0,9.0,54,0.00,,,0.00,,2013-10-24 16:42:00,
2013-10-24 11:53:00,40.0,25.0,30.20,NW,316,2.0,7.0,55,0.00,,,0.00,,2013-10-24 16:53:00,
2013-10-24 12:12:00,40.0,25.0,30.21,NW,325,5.0,10.0,55,0.00,,,0.00,,2013-10-24 17:12:00,
2013-10-24 12:22:00,40.0,26.0,30.21,WSW,252,3.0,10.0,56,0.00,,,0.00,,2013-10-24 17:22:00,
2013-10-24 12:43:00,40.0,24.0,30.21,North,355,3.0,9.0,53,0.00,,,0.00,,2013-10-24 17:43:00,
2013-10-24 12:52:00,40.0,25.0,30.22,NW,306,3.0,9.0,55,0.00,,,0.00,,2013-10-24 17:52:00,
2013-10-24 13:12:00,40.0,26.0,30.22,NE,47,4.0,9.0,56,0.00,,,0.00,,2013-10-24 18:12:00,
2013-10-24 13:23:00,39.0,25.0,30.22,North,355,3.0,11.0,57,0.00,,,0.00,,2013-10-24 18:23:00,
2013-10-24 13:42:00,40.0,25.0,30.22,West,263,1.0,10.0,55,0.00,,,0.00,,2013-10-24 18:42:00,
2013-10-24 13:53:00,40.0,25.0,30.22,NW,308,4.0,11.0,55,0.00,,,0.00,,2013-10-24 18:53:00,
2013-10-24 14:11:00,39.0,25.0,30.22,WNW,302,4.0,13.0,56,0.00,,,0.00,,2013-10-24 19:11:00,
2013-10-24 14:22:00,39.0,25.0,30.22,SW,236,2.0,8.0,57,0.00,,,0.00,,2013-10-24 19:22:00,
2013-10-24 14:43:00,39.0,25.0,30.22,NW,315,2.0,9.0,57,0.00,,,0.00,,2013-10-24 19:43:00,
2013-10-24 14:53:00,40.0,26.0,30.22,WSW,250,3.0,7.0,56,0.00,,,0.00,,2013-10-24 19:53:00,
2013-10-24 15:11:00,40.0,25.0,30.23,NW,317,2.0,7.0,55,0.00,,,0.00,,2013-10-24 20:11:00,
2013-10-24 15:23:00,40.0,25.0,30.23,West,269,2.0,7.0,55,0.00,,,0.00,,2013-10-24 20:23:00,
2013-10-24 15:42:00,40.0,26.0,30.23,WSW,254,1.0,7.0,57,0.00,,,0.00,,2013-10-24 20:42:00,
2013-10-24 15:53:00,40.0,25.0,30.24,North,355,3.0,9.0,55,0.00,,,0.00,,2013-10-24 20:53:00,
2013-10-24 16:02:00,40.0,25.0,30.24,North,355,3.0,9.0,55,0.00,,,0.00,,2013-10-24 21:02:00,
2013-10-24 16:12:00,40.0,25.0,30.24,North,355,3.0,9.0,55,0.00,,,0.00,,2013-10-24 21:12:00,
2013-10-24 16:22:00,40.0,26.0,30.24,NE,49,3.0,8.0,56,0.00,,,0.00,,2013-10-24 21:22:00,
2013-10-24 16:43:00,40.0,26.0,30.24,West,268,1.0,5.0,56,0.00,,,0.00,,2013-10-24 21:43:00,
2013-10-24 16:54:00,39.0,25.0,30.25,WNW,293,1.0,6.0,58,0.00,,,0.00,,2013-10-24 21:54:00,
2013-10-24 17:13:00,39.0,25.0,30.25,WSW,238,3.0,7.0,58,0.00,,,0.00,,2013-10-24 22:13:00,
2013-10-24 17:24:00,39.0,26.0,30.26,WNW,292,1.0,6.0,60,0.00,,,0.00,,2013-10-24 22:24:00,
2013-10-24 17:43:00,38.0,26.0,30.26,North,355,0.0,7.0,61,0.00,,,0.00,,2013-10-24 22:43:00,
2013-10-24 17:54:00,38.0,26.0,30.26,West,281,0.0,5.0,61,0.00,,,0.00,,2013-10-24 22:54:00,
2013-10-24 18:13:00,38.0,26.0,30.27,WSW,256,0.0,5.0,62,0.00,,,0.00,,2013-10-24 23:13:00,
2013-10-24 18:22:00,38.0,26.0,30.27,West,268,2.0,5.0,62,0.00,,,0.00,,2013-10-24 23:22:00,
2013-10-24 18:43:00,38.0,27.0,30.28,West,261,0.0,6.0,63,0.00,,,0.00,,2013-10-24 23:43:00,
2013-10-24 18:53:00,37.0,26.0,30.28,West,271,2.0,5.0,65,0.00,,,0.00,,2013-10-24 23:53:00,
2013-10-24 19:12:00,36.0,26.0,30.29,West,265,2.0,5.0,66,0.00,,,0.00,,2013-10-25 00:12:00,
2013-10-24 19:22:00,36.0,26.0,30.29,West,269,2.0,6.0,68,0.00,,,0.00,,2013-10-25 00:22:00,
2013-10-24 19:42:00,36.0,26.0,30.29,West,281,2.0,7.0,68,0.00,,,0.00,,2013-10-25 00:42:00,
2013-10-24 19:52:00,36.0,26.0,30.30,WSW,251,2.0,7.0,68,0.00,,,0.00,,2013-10-25 00:52:00,
2013-10-24 20:11:00,35.0,26.0,30.30,West,269,2.0,7.0,69,0.00,,,0.00,,2013-10-25 01:11:00,
2013-10-24 20:21:00,35.0,26.0,30.30,West,273,2.0,5.0,70,0.00,,,0.00,,2013-10-25 01:21:00,
2013-10-24 20:43:00,35.0,26.0,30.30,WSW,242,3.0,6.0,70,0.00,,,0.00,,2013-10-25 01:43:00,
2013-10-24 20:53:00,35.0,26.0,30.30,West,260,2.0,6.0,70,0.00,,,0.00,,2013-10-25 01:53:00,
2013-10-24 21:12:00,34.0,25.0,30.30,WNW,285,2.0,6.0,70,0.00,,,0.00,,2013-10-25 02:12:00,
2013-10-24 21:23:00,35.0,26.0,30.31,WSW,249,2.0,9.0,69,0.00,,,0.00,,2013-10-25 02:23:00,
2013-10-24 21:42:00,34.0,25.0,30.31,West,277,0.0,8.0,70,0.00,,,0.00,,2013-10-25 02:42:00,
2013-10-24 21:52:00,34.0,26.0,30.32,WSW,242,1.0,6.0,72,0.00,,,0.00,,2013-10-25 02:52:00,
2013-10-24 22:12:00,32.0,25.0,30.32,WNW,287,0.0,6.0,75,0.00,,,0.00,,2013-10-25 03:12:00,
2013-10-24 22:23:00,31.0,25.0,30.32,WNW,287,2.0,7.0,78,0.00,,,0.00,,2013-10-25 03:23:00,
2013-10-24 22:44:00,31.0,25.0,30.32,West,261,1.0,5.0,78,0.00,,,0.00,,2013-10-25 03:44:00,
2013-10-24 22:54:00,31.0,26.0,30.32,West,263,1.0,4.0,80,0.00,,,0.00,,2013-10-25 03:54:00,
2013-10-24 23:14:00,30.0,25.0,30.33,WNW,288,1.0,6.0,80,0.00,,,0.00,,2013-10-25 04:14:00,
2013-10-24 23:24:00,30.0,25.0,30.33,West,275,1.0,5.0,81,0.00,,,0.00,,2013-10-25 04:24:00,
2013-10-24 23:34:00,30.0,25.0,30.33,West,275,1.0,5.0,81,0.00,,,0.00,,2013-10-25 04:34:00,
2013-10-24 23:44:00,30.0,25.0,30.33,West,275,1.0,5.0,81,0.00,,,0.00,,2013-10-25 04:44:00,
2013-10-24 23:54:00,30.0,25.0,30.33,West,275,1.0,5.0,81,0.00,,,0.00,,2013-10-25 04:54:00,